Time,TemperatureF,DewpointF,PressureIn,WindDirection,WindDirectionDegrees,WindSpeedMPH,WindSpeedGustMPH,Humidity,HourlyPrecipIn,Conditions,Clouds,dailyrainin,SoftwareType,DateUTC
2013-07-30 00:01:00,80.7,73.6,29.81,SSW,202,0.0,0.0,79,0.00,,---,0.00,VWS V13.01,2013-07-30 04:01:00,
2013-07-30 00:02:00,80.7,73.6,29.81,SSW,202,0.0,0.0,79,0.00,,---,0.00,VWS V13.01,2013-07-30 04:02:00,
2013-07-30 00:03:00,80.6,73.5,29.81,SSW,202,0.0,0.0,79,0.00,,---,0.00,VWS V13.01,2013-07-30 04:03:00,
2013-07-30 00:08:00,80.6,73.5,29.81,SSW,202,0.0,0.0,79,0.00,,---,0.00,VWS V13.01,2013-07-30 04:08:00,
2013-07-30 00:10:00,80.4,73.3,29.81,SSW,202,0.0,0.0,79,0.00,,---,0.00,VWS V13.01,2013-07-30 04:10:00,
2013-07-30 00:15:00,80.4,73.7,29.81,SSW,202,0.0,0.0,80,0.00,,---,0.00,VWS V13.01,2013-07-30 04:15:00,
2013-07-30 00:20:00,80.4,73.7,29.81,SSW,202,0.0,0.0,80,0.00,,---,0.00,VWS V13.01,2013-07-30 04:20:00,
2013-07-30 00:25:00,80.4,73.7,29.81,SSW,202,0.0,0.0,80,0.00,,---,0.00,VWS V13.01,2013-07-30 04:25:00,
2013-07-30 00:30:00,80.2,73.5,29.81,SSW,202,0.0,0.0,80,0.00,,---,0.00,VWS V13.01,2013-07-30 04:30:00,
2013-07-30 00:35:00,80.2,73.5,29.80,SSW,202,0.0,0.0,80,0.00,,---,0.00,VWS V13.01,2013-07-30 04:35:00,
2013-07-30 00:40:00,80.2,73.5,29.81,SSW,202,0.0,0.0,80,0.00,,---,0.00,VWS V13.01,2013-07-30 04:40:00,
2013-07-30 00:45:00,80.2,73.5,29.80,SSW,202,0.0,0.0,80,0.00,,---,0.00,VWS V13.01,2013-07-30 04:45:00,
2013-07-30 00:50:00,80.0,73.3,29.81,SSW,202,0.0,0.0,80,0.00,,---,0.00,VWS V13.01,2013-07-30 04:50:00,
2013-07-30 00:55:00,80.0,73.3,29.80,SSW,202,0.0,0.0,80,0.00,,---,0.00,VWS V13.01,2013-07-30 04:55:00,
2013-07-30 01:00:00,80.0,73.3,29.81,SSW,202,0.0,0.0,80,0.00,,---,0.00,VWS V13.01,2013-07-30 05:00:00,
2013-07-30 01:05:00,79.8,73.1,29.81,SSW,202,0.0,0.0,80,0.00,,---,0.00,VWS V13.01,2013-07-30 05:05:00,
2013-07-30 01:10:00,79.8,73.1,29.81,SSW,202,0.0,0.0,80,0.00,,---,0.00,VWS V13.01,2013-07-30 05:10:00,
2013-07-30 01:15:00,79.7,73.0,29.81,SSW,202,0.0,0.0,80,0.00,,---,0.00,VWS V13.01,2013-07-30 05:15:00,
2013-07-30 01:20:00,79.5,73.2,29.81,SSW,202,0.0,0.0,81,0.00,,---,0.00,VWS V13.01,2013-07-30 05:20:00,
2013-07-30 01:25:00,79.5,73.2,29.80,SSW,202,0.0,0.0,81,0.00,,---,0.00,VWS V13.01,2013-07-30 05:25:00,
2013-07-30 01:30:00,79.5,73.2,29.80,SSW,202,0.0,0.0,81,0.00,,---,0.00,VWS V13.01,2013-07-30 05:30:00,
2013-07-30 01:35:00,79.5,73.2,29.80,SSW,202,0.0,0.0,81,0.00,,---,0.00,VWS V13.01,2013-07-30 05:35:00,
2013-07-30 01:40:00,79.5,73.2,29.80,SSW,202,0.0,0.0,81,0.00,,---,0.00,VWS V13.01,2013-07-30 05:40:00,
2013-07-30 01:45:00,79.5,73.2,29.80,SSW,202,0.0,0.0,81,0.00,,---,0.00,VWS V13.01,2013-07-30 05:45:00,
2013-07-30 01:50:00,79.5,73.2,29.79,SSW,202,0.0,0.0,81,0.00,,---,0.00,VWS V13.01,2013-07-30 05:50:00,
2013-07-30 01:55:00,79.5,73.2,29.79,SSW,202,0.0,0.0,81,0.00,,---,0.00,VWS V13.01,2013-07-30 05:55:00,
2013-07-30 02:00:00,79.3,73.0,29.79,SSW,202,0.0,0.0,81,0.00,,---,0.00,VWS V13.01,2013-07-30 06:00:00,
2013-07-30 02:05:00,79.1,72.8,29.79,SSW,202,0.0,0.0,81,0.00,,---,0.00,VWS V13.01,2013-07-30 06:05:00,
2013-07-30 02:10:00,79.1,72.8,29.79,SSW,202,0.0,0.0,81,0.00,,---,0.00,VWS V13.01,2013-07-30 06:10:00,
2013-07-30 02:15:00,79.1,72.8,29.79,SSW,202,0.0,0.0,81,0.00,,---,0.00,VWS V13.01,2013-07-30 06:15:00,
2013-07-30 02:20:00,78.9,72.6,29.79,SSW,202,0.0,0.0,81,0.00,,---,0.00,VWS V13.01,2013-07-30 06:20:00,
2013-07-30 02:25:00,78.9,72.6,29.78,SSW,202,0.0,0.0,81,0.00,,---,0.00,VWS V13.01,2013-07-30 06:25:00,
2013-07-30 02:30:00,78.9,72.6,29.78,SSW,202,0.0,0.0,81,0.00,,---,0.00,VWS V13.01,2013-07-30 06:30:00,
2013-07-30 02:35:00,78.9,72.6,29.78,SSW,202,0.0,0.0,81,0.00,,---,0.00,VWS V13.01,2013-07-30 06:35:00,
2013-07-30 02:40:00,78.9,72.6,29.78,SSW,202,0.0,0.0,81,0.00,,---,0.00,VWS V13.01,2013-07-30 06:40:00,
2013-07-30 02:45:00,78.6,72.7,29.78,SSW,202,0.0,0.0,82,0.00,,---,0.00,VWS V13.01,2013-07-30 06:45:00,
2013-07-30 02:50:00,78.6,72.7,29.78,SSW,202,0.0,0.0,82,0.00,,---,0.00,VWS V13.01,2013-07-30 06:50:00,
2013-07-30 02:55:00,78.6,72.7,29.79,SSW,202,0.0,0.0,82,0.00,,---,0.00,VWS V13.01,2013-07-30 06:55:00,
2013-07-30 03:00:00,78.6,72.7,29.79,SSW,202,0.0,0.0,82,0.00,,---,0.00,VWS V13.01,2013-07-30 07:00:00,
2013-07-30 03:05:00,78.6,72.7,29.79,SSW,202,0.0,0.0,82,0.00,,---,0.00,VWS V13.01,2013-07-30 07:05:00,
2013-07-30 03:10:00,78.6,73.0,29.78,SSW,202,0.0,0.0,83,0.00,,---,0.00,VWS V13.01,2013-07-30 07:10:00,
2013-07-30 03:15:00,78.6,73.0,29.78,SSW,202,0.0,0.0,83,0.00,,---,0.00,VWS V13.01,2013-07-30 07:15:00,
2013-07-30 03:20:00,78.6,73.0,29.78,SSW,202,0.0,0.0,83,0.00,,---,0.00,VWS V13.01,2013-07-30 07:20:00,
2013-07-30 03:25:00,78.6,73.0,29.78,SSW,202,0.0,0.0,83,0.00,,---,0.00,VWS V13.01,2013-07-30 07:25:00,
2013-07-30 03:30:00,78.6,73.0,29.78,SSW,202,0.0,0.0,83,0.00,,---,0.00,VWS V13.01,2013-07-30 07:30:00,
2013-07-30 03:35:00,78.6,73.0,29.78,SSW,202,0.0,0.0,83,0.00,,---,0.00,VWS V13.01,2013-07-30 07:35:00,
2013-07-30 03:40:00,78.6,73.0,29.78,SSW,202,0.0,0.0,83,0.00,,---,0.00,VWS V13.01,2013-07-30 07:40:00,
2013-07-30 03:45:00,78.6,73.0,29.78,SSW,202,0.0,0.0,83,0.00,,---,0.00,VWS V13.01,2013-07-30 07:45:00,
2013-07-30 03:50:00,78.4,72.8,29.78,SSW,202,0.0,0.0,83,0.00,,---,0.00,VWS V13.01,2013-07-30 07:50:00,
2013-07-30 03:55:00,78.4,72.8,29.78,SSW,202,0.0,0.0,83,0.00,,---,0.00,VWS V13.01,2013-07-30 07:55:00,
2013-07-30 04:00:00,78.2,72.6,29.77,SSW,202,0.0,0.0,83,0.00,,---,0.00,VWS V13.01,2013-07-30 08:00:00,
2013-07-30 04:05:00,78.0,72.4,29.77,SSW,202,0.0,0.0,83,0.00,,---,0.00,VWS V13.01,2013-07-30 08:05:00,
2013-07-30 04:10:00,78.0,72.4,29.76,SSW,202,0.0,0.0,83,0.00,,---,0.00,VWS V13.01,2013-07-30 08:10:00,
2013-07-30 04:15:00,78.0,72.4,29.76,SSW,202,0.0,0.0,83,0.00,,---,0.00,VWS V13.01,2013-07-30 08:15:00,
2013-07-30 04:20:00,78.0,72.4,29.77,SSW,202,0.0,0.0,83,0.00,,---,0.00,VWS V13.01,2013-07-30 08:20:00,
2013-07-30 04:25:00,77.9,72.3,29.77,SSW,202,0.0,0.0,83,0.00,,---,0.00,VWS V13.01,2013-07-30 08:25:00,
2013-07-30 04:30:00,77.9,72.3,29.77,SSW,202,0.0,0.0,83,0.00,,---,0.00,VWS V13.01,2013-07-30 08:30:00,
2013-07-30 04:35:00,77.9,72.3,29.77,SSW,202,0.0,0.0,83,0.00,,---,0.00,VWS V13.01,2013-07-30 08:35:00,
2013-07-30 04:40:00,77.7,72.1,29.77,SSW,202,0.0,0.0,83,0.00,,---,0.00,VWS V13.01,2013-07-30 08:40:00,
2013-07-30 04:45:00,77.7,72.1,29.77,SSW,202,0.0,0.0,83,0.00,,---,0.00,VWS V13.01,2013-07-30 08:45:00,
2013-07-30 04:50:00,77.5,72.3,29.76,SSW,202,0.0,0.0,84,0.00,,---,0.00,VWS V13.01,2013-07-30 08:50:00,
2013-07-30 04:55:00,77.5,72.3,29.77,SSW,202,0.0,0.0,84,0.00,,---,0.00,VWS V13.01,2013-07-30 08:55:00,
2013-07-30 05:00:00,77.5,72.3,29.77,SSW,202,0.0,0.0,84,0.00,,---,0.00,VWS V13.01,2013-07-30 09:00:00,
2013-07-30 05:05:00,77.5,72.3,29.77,SSW,202,0.0,0.0,84,0.00,,---,0.00,VWS V13.01,2013-07-30 09:05:00,
2013-07-30 05:10:00,77.5,72.3,29.76,SSW,202,0.0,0.0,84,0.00,,---,0.00,VWS V13.01,2013-07-30 09:10:00,
2013-07-30 05:15:00,77.3,72.1,29.76,SSW,202,0.0,0.0,84,0.00,,---,0.00,VWS V13.01,2013-07-30 09:15:00,
2013-07-30 05:20:00,77.3,72.1,29.77,SSW,202,0.0,0.0,84,0.00,,---,0.00,VWS V13.01,2013-07-30 09:20:00,
2013-07-30 05:25:00,77.3,72.1,29.76,SSW,202,0.0,0.0,84,0.00,,---,0.00,VWS V13.01,2013-07-30 09:25:00,
2013-07-30 05:30:00,77.1,71.9,29.77,SSW,202,0.0,0.0,84,0.00,,---,0.00,VWS V13.01,2013-07-30 09:30:00,
2013-07-30 05:35:00,77.1,71.9,29.76,SSW,202,0.0,0.0,84,0.00,,---,0.00,VWS V13.01,2013-07-30 09:35:00,
2013-07-30 05:41:00,77.1,71.9,29.77,SSW,202,0.0,0.0,84,0.00,,---,0.00,VWS V13.01,2013-07-30 09:41:00,
2013-07-30 05:46:00,77.1,71.9,29.77,SSW,202,0.0,0.0,84,0.00,,---,0.00,VWS V13.01,2013-07-30 09:46:00,
2013-07-30 05:51:00,77.1,71.9,29.77,SSW,202,0.0,0.0,84,0.00,,---,0.00,VWS V13.01,2013-07-30 09:51:00,
2013-07-30 05:57:00,77.0,71.8,29.77,SSW,202,0.0,0.0,84,0.00,,---,0.00,VWS V13.01,2013-07-30 09:57:00,
2013-07-30 06:02:00,77.0,71.8,29.77,SSW,202,0.0,0.0,84,0.00,,---,0.00,VWS V13.01,2013-07-30 10:02:00,
2013-07-30 06:08:00,76.8,71.9,29.78,SSW,202,0.0,0.0,85,0.00,,---,0.00,VWS V13.01,2013-07-30 10:08:00,
2013-07-30 06:13:00,76.8,71.9,29.78,SSW,202,0.0,0.0,85,0.00,,---,0.00,VWS V13.01,2013-07-30 10:13:00,
2013-07-30 06:18:00,77.0,72.2,29.78,SSW,202,0.0,0.0,85,0.00,,---,0.00,VWS V13.01,2013-07-30 10:18:00,
2013-07-30 06:23:00,77.0,72.2,29.78,SSW,202,0.0,0.0,85,0.00,,---,0.00,VWS V13.01,2013-07-30 10:23:00,
2013-07-30 06:28:00,76.8,71.9,29.78,SW,225,0.0,0.0,85,0.00,,---,0.00,VWS V13.01,2013-07-30 10:28:00,
2013-07-30 06:33:00,76.8,71.9,29.78,SW,225,0.0,0.0,85,0.00,,---,0.00,VWS V13.01,2013-07-30 10:33:00,
2013-07-30 06:38:00,76.8,71.9,29.78,SW,225,0.0,0.0,85,0.00,,---,0.00,VWS V13.01,2013-07-30 10:38:00,
2013-07-30 06:43:00,76.8,71.9,29.78,SW,225,0.0,0.0,85,0.00,,---,0.00,VWS V13.01,2013-07-30 10:43:00,
2013-07-30 06:48:00,76.8,71.9,29.78,SW,225,0.0,0.0,85,0.00,,---,0.00,VWS V13.01,2013-07-30 10:48:00,
2013-07-30 06:53:00,76.8,71.9,29.78,SW,225,0.0,0.0,85,0.00,,---,0.00,VWS V13.01,2013-07-30 10:53:00,
2013-07-30 06:59:00,76.8,71.9,29.78,SW,225,0.0,0.0,85,0.00,,---,0.00,VWS V13.01,2013-07-30 10:59:00,
2013-07-30 07:04:00,76.8,71.9,29.78,SW,225,0.0,0.0,85,0.00,,---,0.00,VWS V13.01,2013-07-30 11:04:00,
2013-07-30 07:09:00,76.8,71.9,29.78,SW,225,0.0,0.0,85,0.00,,---,0.00,VWS V13.01,2013-07-30 11:09:00,
2013-07-30 07:14:00,76.8,71.9,29.78,SW,225,0.0,0.0,85,0.00,,---,0.00,VWS V13.01,2013-07-30 11:14:00,
2013-07-30 07:19:00,76.8,71.9,29.78,SW,225,0.0,0.0,85,0.00,,---,0.00,VWS V13.01,2013-07-30 11:19:00,
2013-07-30 07:24:00,76.8,72.3,29.78,SW,225,0.0,0.0,86,0.00,,---,0.00,VWS V13.01,2013-07-30 11:24:00,
2013-07-30 07:29:00,76.8,72.3,29.78,SW,225,0.0,0.0,86,0.00,,---,0.00,VWS V13.01,2013-07-30 11:29:00,
2013-07-30 07:34:00,77.1,72.6,29.79,SW,225,0.0,0.0,86,0.00,,---,0.00,VWS V13.01,2013-07-30 11:34:00,
2013-07-30 07:39:00,77.3,72.8,29.79,SW,225,0.0,0.0,86,0.00,,---,0.00,VWS V13.01,2013-07-30 11:39:00,
2013-07-30 07:44:00,77.3,72.8,29.78,SW,225,0.0,0.0,86,0.00,,---,0.00,VWS V13.01,2013-07-30 11:44:00,
2013-07-30 07:49:00,77.5,73.3,29.79,SW,225,0.0,0.0,87,0.00,,---,0.00,VWS V13.01,2013-07-30 11:49:00,
2013-07-30 07:54:00,78.0,73.8,29.79,SW,225,0.0,0.0,87,0.00,,---,0.00,VWS V13.01,2013-07-30 11:54:00,
2013-07-30 07:59:00,78.4,74.2,29.79,SW,225,0.0,0.0,87,0.00,,---,0.00,VWS V13.01,2013-07-30 11:59:00,
2013-07-30 08:04:00,78.6,74.8,29.80,SW,225,0.0,0.0,88,0.00,,---,0.00,VWS V13.01,2013-07-30 12:04:00,
2013-07-30 08:09:00,78.9,75.1,29.80,SW,225,0.0,0.0,88,0.00,,---,0.00,VWS V13.01,2013-07-30 12:09:00,
2013-07-30 08:14:00,79.5,75.6,29.80,SW,225,0.0,0.0,88,0.00,,---,0.00,VWS V13.01,2013-07-30 12:14:00,
2013-07-30 08:19:00,79.7,75.8,29.81,SW,225,0.0,0.0,88,0.00,,---,0.00,VWS V13.01,2013-07-30 12:19:00,
2013-07-30 08:24:00,80.2,76.3,29.81,SW,225,0.0,0.0,88,0.00,,---,0.00,VWS V13.01,2013-07-30 12:24:00,
2013-07-30 08:29:00,80.6,76.7,29.81,SW,225,0.0,0.0,88,0.00,,---,0.00,VWS V13.01,2013-07-30 12:29:00,
2013-07-30 08:34:00,80.9,77.0,29.81,SW,225,0.0,0.0,88,0.00,,---,0.00,VWS V13.01,2013-07-30 12:34:00,
2013-07-30 08:39:00,81.6,77.7,29.81,SW,225,0.0,0.0,88,0.00,,---,0.00,VWS V13.01,2013-07-30 12:39:00,
2013-07-30 08:44:00,82.0,78.1,29.81,SW,225,0.0,0.0,88,0.00,,---,0.00,VWS V13.01,2013-07-30 12:44:00,
2013-07-30 08:49:00,82.2,78.3,29.81,SW,225,0.0,0.0,88,0.00,,---,0.00,VWS V13.01,2013-07-30 12:49:00,
2013-07-30 08:54:00,82.9,78.6,29.81,SSW,202,0.0,0.0,87,0.00,,---,0.00,VWS V13.01,2013-07-30 12:54:00,
2013-07-30 08:59:00,83.1,78.8,29.81,SSW,202,0.0,0.0,87,0.00,,---,0.00,VWS V13.01,2013-07-30 12:59:00,
2013-07-30 09:04:00,83.4,79.1,29.81,SSW,202,0.0,0.0,87,0.00,,---,0.00,VWS V13.01,2013-07-30 13:04:00,
2013-07-30 09:09:00,83.8,79.2,29.81,SSW,202,0.0,0.0,86,0.00,,---,0.00,VWS V13.01,2013-07-30 13:09:00,
2013-07-30 09:14:00,83.8,79.2,29.81,SSW,202,0.0,0.0,86,0.00,,---,0.00,VWS V13.01,2013-07-30 13:14:00,
2013-07-30 09:19:00,84.0,79.4,29.81,SSW,202,0.0,0.0,86,0.00,,---,0.00,VWS V13.01,2013-07-30 13:19:00,
2013-07-30 09:24:00,84.2,79.2,29.82,SSW,202,0.0,0.0,85,0.00,,---,0.00,VWS V13.01,2013-07-30 13:24:00,
2013-07-30 09:29:00,84.5,79.1,29.82,SSW,202,0.0,0.0,84,0.00,,---,0.00,VWS V13.01,2013-07-30 13:29:00,
2013-07-30 09:34:00,85.1,79.4,29.82,SSW,202,0.0,0.0,83,0.00,,---,0.00,VWS V13.01,2013-07-30 13:34:00,
2013-07-30 09:39:00,85.6,79.8,29.81,SSW,202,0.0,0.0,83,0.00,,---,0.00,VWS V13.01,2013-07-30 13:39:00,
2013-07-30 09:44:00,85.8,79.3,29.82,SSW,202,0.0,0.0,81,0.00,,---,0.00,VWS V13.01,2013-07-30 13:44:00,
2013-07-30 09:49:00,86.3,79.4,29.82,SSW,202,0.0,0.0,80,0.00,,---,0.00,VWS V13.01,2013-07-30 13:49:00,
2013-07-30 09:54:00,86.7,79.4,29.82,SSW,202,0.0,0.0,79,0.00,,---,0.00,VWS V13.01,2013-07-30 13:54:00,
2013-07-30 09:59:00,86.5,79.2,29.82,SSW,202,0.0,0.0,79,0.00,,---,0.00,VWS V13.01,2013-07-30 13:59:00,
2013-07-30 10:04:00,86.9,79.2,29.82,SSW,202,0.0,0.0,78,0.00,,---,0.00,VWS V13.01,2013-07-30 14:04:00,
2013-07-30 10:09:00,87.0,78.9,29.82,SSW,202,0.0,0.0,77,0.00,,---,0.00,VWS V13.01,2013-07-30 14:09:00,
2013-07-30 10:14:00,87.4,78.9,29.82,SSW,202,0.0,0.0,76,0.00,,---,0.00,VWS V13.01,2013-07-30 14:14:00,
2013-07-30 10:19:00,87.4,78.5,29.82,SSW,202,0.0,0.0,75,0.00,,---,0.00,VWS V13.01,2013-07-30 14:19:00,
2013-07-30 10:24:00,87.8,78.9,29.82,SSW,202,0.0,0.0,75,0.00,,---,0.00,VWS V13.01,2013-07-30 14:24:00,
2013-07-30 10:29:00,88.1,78.8,29.82,SSW,202,0.0,0.0,74,0.00,,---,0.00,VWS V13.01,2013-07-30 14:29:00,
2013-07-30 10:34:00,88.5,79.2,29.82,SSW,202,0.0,0.0,74,0.00,,---,0.00,VWS V13.01,2013-07-30 14:34:00,
2013-07-30 10:39:00,88.7,78.9,29.82,SSW,202,0.0,0.0,73,0.00,,---,0.00,VWS V13.01,2013-07-30 14:39:00,
2013-07-30 10:44:00,88.8,78.6,29.82,SSW,202,0.0,0.0,72,0.00,,---,0.00,VWS V13.01,2013-07-30 14:44:00,
2013-07-30 10:49:00,89.2,78.6,29.82,SSW,202,0.0,0.0,71,0.00,,---,0.00,VWS V13.01,2013-07-30 14:49:00,
2013-07-30 10:54:00,89.2,78.1,29.82,SSW,202,0.0,0.0,70,0.00,,---,0.00,VWS V13.01,2013-07-30 14:54:00,
2013-07-30 10:59:00,89.4,78.3,29.82,SSW,202,0.0,0.0,70,0.00,,---,0.00,VWS V13.01,2013-07-30 14:59:00,
2013-07-30 11:04:00,89.7,78.6,29.82,SSW,202,0.0,0.0,70,0.00,,---,0.00,VWS V13.01,2013-07-30 15:04:00,
2013-07-30 11:09:00,89.9,78.4,29.83,SSW,202,0.0,0.0,69,0.00,,---,0.00,VWS V13.01,2013-07-30 15:09:00,
2013-07-30 11:14:00,89.9,78.4,29.82,SSW,202,0.0,0.0,69,0.00,,---,0.00,VWS V13.01,2013-07-30 15:14:00,
2013-07-30 11:19:00,90.5,78.9,29.82,SSW,202,0.0,0.0,69,0.00,,---,0.00,VWS V13.01,2013-07-30 15:19:00,
2013-07-30 11:24:00,90.8,78.8,29.83,SSW,202,0.0,0.0,68,0.00,,---,0.00,VWS V13.01,2013-07-30 15:24:00,
2013-07-30 11:29:00,91.0,79.4,29.83,SW,225,0.0,0.0,69,0.00,,---,0.00,VWS V13.01,2013-07-30 15:29:00,
2013-07-30 11:34:00,91.2,79.6,29.83,SSW,202,0.0,0.0,69,0.00,,---,0.00,VWS V13.01,2013-07-30 15:34:00,
2013-07-30 11:39:00,91.2,79.2,29.83,SSW,202,0.0,0.0,68,0.00,,---,0.00,VWS V13.01,2013-07-30 15:39:00,
2013-07-30 11:44:00,91.4,79.4,29.83,SSW,202,0.0,0.0,68,0.00,,---,0.00,VWS V13.01,2013-07-30 15:44:00,
2013-07-30 11:49:00,91.7,79.6,29.83,SSW,202,0.0,0.0,68,0.00,,---,0.00,VWS V13.01,2013-07-30 15:49:00,
2013-07-30 11:54:00,91.7,79.6,29.83,SSW,202,0.0,0.0,68,0.00,,---,0.00,VWS V13.01,2013-07-30 15:54:00,
2013-07-30 11:59:00,91.9,79.8,29.83,SSW,202,0.0,0.0,68,0.00,,---,0.00,VWS V13.01,2013-07-30 15:59:00,
2013-07-30 12:04:00,91.9,79.4,29.83,SSW,202,0.0,0.0,67,0.00,,---,0.00,VWS V13.01,2013-07-30 16:04:00,
2013-07-30 12:09:00,92.1,79.6,29.83,SSW,202,0.0,0.0,67,0.00,,---,0.00,VWS V13.01,2013-07-30 16:09:00,
2013-07-30 12:14:00,92.1,79.6,29.83,SW,225,0.0,0.0,67,0.00,,---,0.00,VWS V13.01,2013-07-30 16:14:00,
2013-07-30 12:19:00,91.5,79.0,29.83,SSW,202,0.0,0.0,67,0.00,,---,0.00,VWS V13.01,2013-07-30 16:19:00,
2013-07-30 12:24:00,91.0,78.5,29.83,SSW,202,0.0,0.0,67,0.00,,---,0.00,VWS V13.01,2013-07-30 16:24:00,
2013-07-30 12:29:00,90.5,78.1,29.83,SSW,202,0.0,0.0,67,0.00,,---,0.00,VWS V13.01,2013-07-30 16:29:00,
2013-07-30 12:34:00,89.7,77.7,29.83,SSW,202,0.0,0.0,68,0.00,,---,0.00,VWS V13.01,2013-07-30 16:34:00,
2013-07-30 12:39:00,89.4,77.4,29.83,SSW,202,0.0,0.0,68,0.00,,---,0.00,VWS V13.01,2013-07-30 16:39:00,
2013-07-30 12:44:00,89.2,77.7,29.83,SSW,202,0.0,0.0,69,0.00,,---,0.00,VWS V13.01,2013-07-30 16:44:00,
2013-07-30 12:49:00,89.0,77.9,29.82,SSW,202,0.0,0.0,70,0.00,,---,0.00,VWS V13.01,2013-07-30 16:49:00,
2013-07-30 12:54:00,88.8,77.8,29.83,SSW,202,0.0,0.0,70,0.00,,---,0.00,VWS V13.01,2013-07-30 16:54:00,
2013-07-30 12:59:00,89.0,78.4,29.82,SSW,202,0.0,0.0,71,0.00,,---,0.00,VWS V13.01,2013-07-30 16:59:00,
2013-07-30 13:04:00,89.2,78.6,29.82,SSW,202,0.0,0.0,71,0.00,,---,0.00,VWS V13.01,2013-07-30 17:04:00,
2013-07-30 13:09:00,88.8,77.8,29.83,SSW,202,0.0,0.0,70,0.00,,---,0.00,VWS V13.01,2013-07-30 17:09:00,
2013-07-30 13:14:00,88.7,77.7,29.82,SSW,202,0.0,0.0,70,0.00,,---,0.00,VWS V13.01,2013-07-30 17:14:00,
2013-07-30 13:19:00,88.3,77.7,29.82,SSW,202,0.0,0.0,71,0.00,,---,0.00,VWS V13.01,2013-07-30 17:19:00,
2013-07-30 13:24:00,88.3,77.7,29.82,SSW,202,0.0,0.0,71,0.00,,---,0.00,VWS V13.01,2013-07-30 17:24:00,
2013-07-30 13:29:00,88.3,77.7,29.82,SSW,202,0.0,0.0,71,0.00,,---,0.00,VWS V13.01,2013-07-30 17:29:00,
2013-07-30 13:34:00,88.1,77.5,29.82,SSW,202,0.0,0.0,71,0.00,,---,0.00,VWS V13.01,2013-07-30 17:34:00,
2013-07-30 13:40:00,88.1,77.5,29.83,SSW,202,0.0,0.0,71,0.00,,---,0.00,VWS V13.01,2013-07-30 17:40:00,
2013-07-30 13:45:00,88.5,78.3,29.82,SSW,202,0.0,0.0,72,0.00,,---,0.00,VWS V13.01,2013-07-30 17:45:00,
2013-07-30 13:50:00,88.7,78.5,29.82,SSW,202,0.0,0.0,72,0.00,,---,0.00,VWS V13.01,2013-07-30 17:50:00,
2013-07-30 13:55:00,88.7,78.5,29.82,SSW,202,0.0,0.0,72,0.00,,---,0.00,VWS V13.01,2013-07-30 17:55:00,
2013-07-30 14:00:00,88.5,77.9,29.82,SSW,202,0.0,0.0,71,0.00,,---,0.00,VWS V13.01,2013-07-30 18:00:00,
2013-07-30 14:06:00,88.3,77.7,29.82,SSW,202,0.0,0.0,71,0.00,,---,0.00,VWS V13.01,2013-07-30 18:06:00,
2013-07-30 14:12:00,88.3,77.7,29.82,SSW,202,0.0,0.0,71,0.00,,---,0.00,VWS V13.01,2013-07-30 18:12:00,
2013-07-30 14:17:00,87.6,77.0,29.82,SSW,202,0.0,0.0,71,0.00,,---,0.00,VWS V13.01,2013-07-30 18:17:00,
2013-07-30 14:23:00,87.9,77.3,29.81,SSW,202,0.0,0.0,71,0.00,,---,0.00,VWS V13.01,2013-07-30 18:23:00,
2013-07-30 14:28:00,87.9,76.9,29.81,SSW,202,0.0,0.0,70,0.00,,---,0.00,VWS V13.01,2013-07-30 18:28:00,
2013-07-30 14:33:00,88.3,77.3,29.81,SSW,202,0.0,0.0,70,0.00,,---,0.00,VWS V13.01,2013-07-30 18:33:00,
2013-07-30 14:38:00,88.7,77.7,29.81,SSW,202,0.0,0.0,70,0.00,,---,0.00,VWS V13.01,2013-07-30 18:38:00,
2013-07-30 14:43:00,88.8,77.3,29.81,SSW,202,0.0,0.0,69,0.00,,---,0.00,VWS V13.01,2013-07-30 18:43:00,
2013-07-30 14:48:00,89.0,77.5,29.81,SSW,202,0.0,0.0,69,0.00,,---,0.00,VWS V13.01,2013-07-30 18:48:00,
2013-07-30 14:53:00,89.2,77.3,29.81,SSW,202,0.0,0.0,68,0.00,,---,0.00,VWS V13.01,2013-07-30 18:53:00,
2013-07-30 14:58:00,89.6,77.6,29.80,SSW,202,0.0,0.0,68,0.00,,---,0.00,VWS V13.01,2013-07-30 18:58:00,
2013-07-30 15:03:00,89.7,77.7,29.80,SSW,202,0.0,0.0,68,0.00,,---,0.00,VWS V13.01,2013-07-30 19:03:00,
2013-07-30 15:08:00,89.9,77.9,29.80,SSW,202,0.0,0.0,68,0.00,,---,0.00,VWS V13.01,2013-07-30 19:08:00,
2013-07-30 15:13:00,90.1,77.7,29.80,SSW,202,0.0,0.0,67,0.00,,---,0.00,VWS V13.01,2013-07-30 19:13:00,
2013-07-30 15:18:00,90.3,77.9,29.80,West,270,0.0,0.0,67,0.00,,---,0.00,VWS V13.01,2013-07-30 19:18:00,
2013-07-30 15:23:00,90.3,77.9,29.80,SSW,202,0.0,0.0,67,0.00,,---,0.00,VWS V13.01,2013-07-30 19:23:00,
2013-07-30 15:28:00,90.6,78.1,29.80,WSW,248,0.0,0.0,67,0.00,,---,0.00,VWS V13.01,2013-07-30 19:28:00,
2013-07-30 15:33:00,90.6,77.7,29.79,SSW,202,0.0,0.0,66,0.00,,---,0.00,VWS V13.01,2013-07-30 19:33:00,
2013-07-30 15:38:00,90.8,76.9,29.79,SSW,202,0.0,0.0,64,0.00,,---,0.00,VWS V13.01,2013-07-30 19:38:00,
2013-07-30 15:43:00,91.0,77.1,29.78,SSW,202,0.0,0.0,64,0.00,,---,0.00,VWS V13.01,2013-07-30 19:43:00,
2013-07-30 15:48:00,91.0,76.7,29.78,SSW,202,0.0,0.0,63,0.00,,---,0.00,VWS V13.01,2013-07-30 19:48:00,
2013-07-30 15:53:00,91.4,77.5,29.77,SSW,202,0.0,0.0,64,0.00,,---,0.00,VWS V13.01,2013-07-30 19:53:00,
2013-07-30 15:58:00,91.5,77.6,29.77,NW,315,0.0,0.0,64,0.00,,---,0.00,VWS V13.01,2013-07-30 19:58:00,
2013-07-30 16:03:00,91.4,77.5,29.76,WSW,248,0.0,0.0,64,0.00,,---,0.00,VWS V13.01,2013-07-30 20:03:00,
2013-07-30 16:08:00,91.4,78.0,29.76,SW,225,0.0,0.0,65,0.00,,---,0.00,VWS V13.01,2013-07-30 20:08:00,
2013-07-30 16:13:00,91.2,77.8,29.76,SW,225,0.0,0.0,65,0.00,,---,0.00,VWS V13.01,2013-07-30 20:13:00,
2013-07-30 16:18:00,91.2,77.8,29.76,WNW,292,0.0,0.0,65,0.00,,---,0.00,VWS V13.01,2013-07-30 20:18:00,
2013-07-30 16:23:00,91.0,77.6,29.76,WNW,292,0.0,0.0,65,0.00,,---,0.00,VWS V13.01,2013-07-30 20:23:00,
2013-07-30 16:28:00,91.0,78.1,29.77,NW,315,0.0,0.0,66,0.00,,---,0.00,VWS V13.01,2013-07-30 20:28:00,
2013-07-30 16:34:00,91.0,78.1,29.76,NW,315,0.0,0.0,66,0.00,,---,0.00,VWS V13.01,2013-07-30 20:34:00,
2013-07-30 16:39:00,91.0,78.1,29.77,WNW,292,0.0,0.0,66,0.00,,---,0.00,VWS V13.01,2013-07-30 20:39:00,
2013-07-30 16:44:00,91.2,78.3,29.76,NW,315,0.0,0.0,66,0.00,,---,0.00,VWS V13.01,2013-07-30 20:44:00,
2013-07-30 16:49:00,91.5,78.5,29.76,WSW,248,0.0,0.0,66,0.00,,---,0.00,VWS V13.01,2013-07-30 20:49:00,
2013-07-30 16:54:00,91.5,78.1,29.76,WNW,292,0.0,0.0,65,0.00,,---,0.00,VWS V13.01,2013-07-30 20:54:00,
2013-07-30 16:59:00,91.5,78.1,29.76,West,270,0.0,0.0,65,0.00,,---,0.00,VWS V13.01,2013-07-30 20:59:00,
2013-07-30 17:04:00,91.5,78.1,29.76,SW,225,0.0,0.0,65,0.00,,---,0.00,VWS V13.01,2013-07-30 21:04:00,
2013-07-30 17:09:00,91.5,78.1,29.76,WNW,292,0.0,0.0,65,0.00,,---,0.00,VWS V13.01,2013-07-30 21:09:00,
2013-07-30 17:14:00,91.4,78.0,29.76,West,270,0.0,0.0,65,0.00,,---,0.00,VWS V13.01,2013-07-30 21:14:00,
2013-07-30 17:19:00,91.2,77.8,29.76,SSW,202,0.0,0.0,65,0.00,,---,0.00,VWS V13.01,2013-07-30 21:19:00,
2013-07-30 17:24:00,91.0,77.6,29.76,SSW,202,0.0,0.0,65,0.00,,---,0.00,VWS V13.01,2013-07-30 21:24:00,
2013-07-30 17:29:00,91.0,78.1,29.76,SSW,202,0.0,0.0,66,0.00,,---,0.00,VWS V13.01,2013-07-30 21:29:00,
2013-07-30 17:34:00,90.6,77.7,29.76,SSW,202,0.0,0.0,66,0.00,,---,0.00,VWS V13.01,2013-07-30 21:34:00,
2013-07-30 17:39:00,90.6,77.7,29.76,SSW,202,0.0,0.0,66,0.00,,---,0.00,VWS V13.01,2013-07-30 21:39:00,
2013-07-30 17:44:00,90.8,77.9,29.76,SSW,202,0.0,0.0,66,0.00,,---,0.00,VWS V13.01,2013-07-30 21:44:00,
2013-07-30 17:49:00,90.8,77.9,29.76,SSW,202,0.0,0.0,66,0.00,,---,0.00,VWS V13.01,2013-07-30 21:49:00,
2013-07-30 17:54:00,90.8,77.9,29.76,SSW,202,0.0,0.0,66,0.00,,---,0.00,VWS V13.01,2013-07-30 21:54:00,
2013-07-30 17:59:00,90.8,77.9,29.76,SSW,202,0.0,0.0,66,0.00,,---,0.00,VWS V13.01,2013-07-30 21:59:00,
2013-07-30 18:04:00,91.0,78.1,29.76,SSW,202,0.0,0.0,66,0.00,,---,0.00,VWS V13.01,2013-07-30 22:04:00,
2013-07-30 18:09:00,91.0,78.1,29.76,SSW,202,0.0,0.0,66,0.00,,---,0.00,VWS V13.01,2013-07-30 22:09:00,
2013-07-30 18:14:00,91.0,78.1,29.76,SW,225,0.0,0.0,66,0.00,,---,0.00,VWS V13.01,2013-07-30 22:14:00,
2013-07-30 18:19:00,91.0,78.1,29.76,SW,225,0.0,0.0,66,0.00,,---,0.00,VWS V13.01,2013-07-30 22:19:00,
2013-07-30 18:24:00,90.6,77.7,29.76,SSW,202,0.0,0.0,66,0.00,,---,0.00,VWS V13.01,2013-07-30 22:24:00,
2013-07-30 18:29:00,90.5,77.6,29.76,SSW,202,0.0,0.0,66,0.00,,---,0.00,VWS V13.01,2013-07-30 22:29:00,
2013-07-30 18:34:00,90.3,77.4,29.76,SSW,202,0.0,0.0,66,0.00,,---,0.00,VWS V13.01,2013-07-30 22:34:00,
2013-07-30 18:39:00,90.3,77.4,29.76,SSW,202,0.0,0.0,66,0.00,,---,0.00,VWS V13.01,2013-07-30 22:39:00,
2013-07-30 18:44:00,90.1,77.2,29.76,SSW,202,0.0,0.0,66,0.00,,---,0.00,VWS V13.01,2013-07-30 22:44:00,
2013-07-30 18:49:00,89.9,77.0,29.76,SSW,202,0.0,0.0,66,0.00,,---,0.00,VWS V13.01,2013-07-30 22:49:00,
2013-07-30 18:54:00,89.7,76.8,29.76,SSW,202,0.0,0.0,66,0.00,,---,0.00,VWS V13.01,2013-07-30 22:54:00,
2013-07-30 18:59:00,89.7,76.8,29.76,SSW,202,0.0,0.0,66,0.00,,---,0.00,VWS V13.01,2013-07-30 22:59:00,
2013-07-30 19:04:00,89.7,76.8,29.76,SW,225,0.0,0.0,66,0.00,,---,0.00,VWS V13.01,2013-07-30 23:04:00,
2013-07-30 19:09:00,89.6,77.2,29.76,SW,225,0.0,0.0,67,0.00,,---,0.00,VWS V13.01,2013-07-30 23:09:00,
2013-07-30 19:14:00,89.6,77.2,29.76,SSW,202,0.0,0.0,67,0.00,,---,0.00,VWS V13.01,2013-07-30 23:14:00,
2013-07-30 19:19:00,89.4,77.0,29.76,SSW,202,0.0,0.0,67,0.00,,---,0.00,VWS V13.01,2013-07-30 23:19:00,
2013-07-30 19:24:00,89.2,76.8,29.76,SSW,202,0.0,0.0,67,0.00,,---,0.00,VWS V13.01,2013-07-30 23:24:00,
2013-07-30 19:29:00,88.8,76.4,29.76,SSW,202,0.0,0.0,67,0.00,,---,0.00,VWS V13.01,2013-07-30 23:29:00,
2013-07-30 19:34:00,88.5,76.6,29.77,SSW,202,0.0,0.0,68,0.00,,---,0.00,VWS V13.01,2013-07-30 23:34:00,
2013-07-30 19:39:00,88.3,76.4,29.77,SSW,202,0.0,0.0,68,0.00,,---,0.00,VWS V13.01,2013-07-30 23:39:00,
2013-07-30 19:44:00,87.9,76.0,29.76,SSW,202,0.0,0.0,68,0.00,,---,0.00,VWS V13.01,2013-07-30 23:44:00,
2013-07-30 19:49:00,87.6,76.2,29.76,SSW,202,0.0,0.0,69,0.00,,---,0.00,VWS V13.01,2013-07-30 23:49:00,
2013-07-30 19:54:00,87.4,76.0,29.77,SSW,202,0.0,0.0,69,0.00,,---,0.00,VWS V13.01,2013-07-30 23:54:00,
2013-07-30 19:59:00,87.0,76.0,29.77,SSW,202,0.0,0.0,70,0.00,,---,0.00,VWS V13.01,2013-07-30 23:59:00,
2013-07-30 20:04:00,87.0,76.0,29.77,SSW,202,0.0,0.0,70,0.00,,---,0.00,VWS V13.01,2013-07-31 00:04:00,
2013-07-30 20:09:00,86.9,75.9,29.77,SSW,202,0.0,0.0,70,0.00,,---,0.00,VWS V13.01,2013-07-31 00:09:00,
2013-07-30 20:14:00,86.7,75.8,29.77,SSW,202,0.0,0.0,70,0.00,,---,0.00,VWS V13.01,2013-07-31 00:14:00,
2013-07-30 20:19:00,86.5,75.6,29.77,SSW,202,0.0,0.0,70,0.00,,---,0.00,VWS V13.01,2013-07-31 00:19:00,
2013-07-30 20:24:00,86.3,75.4,29.76,SSW,202,0.0,0.0,70,0.00,,---,0.00,VWS V13.01,2013-07-31 00:24:00,
2013-07-30 20:29:00,86.1,75.6,29.76,SSW,202,0.0,0.0,71,0.00,,---,0.00,VWS V13.01,2013-07-31 00:29:00,
2013-07-30 20:34:00,85.8,75.3,29.77,SSW,202,0.0,0.0,71,0.00,,---,0.00,VWS V13.01,2013-07-31 00:34:00,
2013-07-30 20:39:00,85.4,75.3,29.77,SSW,202,0.0,0.0,72,0.00,,---,0.00,VWS V13.01,2013-07-31 00:39:00,
2013-07-30 20:44:00,85.2,75.2,29.77,SSW,202,0.0,0.0,72,0.00,,---,0.00,VWS V13.01,2013-07-31 00:44:00,
2013-07-30 20:49:00,84.9,75.3,29.78,SSW,202,0.0,0.0,73,0.00,,---,0.00,VWS V13.01,2013-07-31 00:49:00,
2013-07-30 20:54:00,84.7,75.1,29.78,SSW,202,0.0,0.0,73,0.00,,---,0.00,VWS V13.01,2013-07-31 00:54:00,
2013-07-30 20:59:00,84.5,74.9,29.78,SSW,202,0.0,0.0,73,0.00,,---,0.00,VWS V13.01,2013-07-31 00:59:00,
2013-07-30 21:04:00,84.3,75.1,29.78,SSW,202,0.0,0.0,74,0.00,,---,0.00,VWS V13.01,2013-07-31 01:04:00,
2013-07-30 21:09:00,84.2,75.0,29.78,SSW,202,0.0,0.0,74,0.00,,---,0.00,VWS V13.01,2013-07-31 01:09:00,
2013-07-30 21:14:00,84.0,74.8,29.78,SSW,202,0.0,0.0,74,0.00,,---,0.00,VWS V13.01,2013-07-31 01:14:00,
2013-07-30 21:19:00,84.0,75.2,29.79,SSW,202,0.0,0.0,75,0.00,,---,0.00,VWS V13.01,2013-07-31 01:19:00,
2013-07-30 21:24:00,84.0,75.2,29.78,SSW,202,0.0,0.0,75,0.00,,---,0.00,VWS V13.01,2013-07-31 01:24:00,
2013-07-30 21:29:00,84.0,75.2,29.79,SSW,202,0.0,0.0,75,0.00,,---,0.00,VWS V13.01,2013-07-31 01:29:00,
2013-07-30 21:34:00,84.0,75.2,29.78,SSW,202,0.0,0.0,75,0.00,,---,0.00,VWS V13.01,2013-07-31 01:34:00,
2013-07-30 21:39:00,83.8,75.0,29.78,SSW,202,0.0,0.0,75,0.00,,---,0.00,VWS V13.01,2013-07-31 01:39:00,
2013-07-30 21:44:00,83.8,75.4,29.78,SSW,202,0.0,0.0,76,0.00,,---,0.00,VWS V13.01,2013-07-31 01:44:00,
2013-07-30 21:49:00,83.8,75.4,29.79,SSW,202,0.0,0.0,76,0.00,,---,0.00,VWS V13.01,2013-07-31 01:49:00,
2013-07-30 21:54:00,83.6,75.2,29.78,SSW,202,0.0,0.0,76,0.00,,---,0.00,VWS V13.01,2013-07-31 01:54:00,
2013-07-30 21:59:00,83.6,75.2,29.79,SSW,202,0.0,0.0,76,0.00,,---,0.00,VWS V13.01,2013-07-31 01:59:00,
2013-07-30 22:04:00,83.4,75.1,29.78,SSW,202,0.0,0.0,76,0.00,,---,0.00,VWS V13.01,2013-07-31 02:04:00,
2013-07-30 22:09:00,83.4,75.1,29.79,SSW,202,0.0,0.0,76,0.00,,---,0.00,VWS V13.01,2013-07-31 02:09:00,
2013-07-30 22:14:00,83.4,75.4,29.79,SSW,202,0.0,0.0,77,0.00,,---,0.00,VWS V13.01,2013-07-31 02:14:00,
2013-07-30 22:19:00,83.3,75.3,29.79,SSW,202,0.0,0.0,77,0.00,,---,0.00,VWS V13.01,2013-07-31 02:19:00,
2013-07-30 22:24:00,83.4,75.4,29.79,SSW,202,0.0,0.0,77,0.00,,---,0.00,VWS V13.01,2013-07-31 02:24:00,
2013-07-30 22:29:00,83.4,75.1,29.79,SSW,202,0.0,0.0,76,0.00,,---,0.00,VWS V13.01,2013-07-31 02:29:00,
2013-07-30 22:35:00,83.4,75.1,29.79,SSW,202,0.0,0.0,76,0.00,,---,0.00,VWS V13.01,2013-07-31 02:35:00,
2013-07-30 22:40:00,83.3,74.9,29.79,SSW,202,0.0,0.0,76,0.00,,---,0.00,VWS V13.01,2013-07-31 02:40:00,
2013-07-30 22:45:00,83.3,74.9,29.79,SSW,202,0.0,0.0,76,0.00,,---,0.00,VWS V13.01,2013-07-31 02:45:00,
2013-07-30 22:50:00,83.1,74.8,29.79,SSW,202,0.0,0.0,76,0.00,,---,0.00,VWS V13.01,2013-07-31 02:50:00,
2013-07-30 22:55:00,83.1,74.8,29.79,SSW,202,0.0,0.0,76,0.00,,---,0.00,VWS V13.01,2013-07-31 02:55:00,
2013-07-30 23:00:00,83.1,74.8,29.79,SSW,202,0.0,0.0,76,0.00,,---,0.00,VWS V13.01,2013-07-31 03:00:00,
2013-07-30 23:05:00,83.1,74.8,29.79,SSW,202,0.0,0.0,76,0.00,,---,0.00,VWS V13.01,2013-07-31 03:05:00,
2013-07-30 23:10:00,83.1,74.8,29.79,SSW,202,0.0,0.0,76,0.00,,---,0.00,VWS V13.01,2013-07-31 03:10:00,
2013-07-30 23:15:00,82.9,74.6,29.79,SSW,202,0.0,0.0,76,0.00,,---,0.00,VWS V13.01,2013-07-31 03:15:00,
2013-07-30 23:20:00,82.9,74.6,29.79,SSW,202,0.0,0.0,76,0.00,,---,0.00,VWS V13.01,2013-07-31 03:20:00,
2013-07-30 23:25:00,82.7,74.4,29.78,SSW,202,0.0,0.0,76,0.00,,---,0.00,VWS V13.01,2013-07-31 03:25:00,
2013-07-30 23:30:00,82.7,74.4,29.79,SSW,202,0.0,0.0,76,0.00,,---,0.00,VWS V13.01,2013-07-31 03:30:00,
2013-07-30 23:35:00,82.7,74.4,29.79,SSW,202,0.0,0.0,76,0.00,,---,0.00,VWS V13.01,2013-07-31 03:35:00,
2013-07-30 23:40:00,82.5,74.6,29.79,SSW,202,0.0,0.0,77,0.00,,---,0.00,VWS V13.01,2013-07-31 03:40:00,
2013-07-30 23:45:00,82.5,74.6,29.79,SSW,202,0.0,0.0,77,0.00,,---,0.00,VWS V13.01,2013-07-31 03:45:00,
2013-07-30 23:50:00,82.5,74.6,29.78,SSW,202,0.0,0.0,77,0.00,,---,0.00,VWS V13.01,2013-07-31 03:50:00,
2013-07-30 23:55:00,82.2,74.3,29.78,SSW,202,0.0,0.0,77,0.00,,---,0.00,VWS V13.01,2013-07-31 03:55:00,